Regional Weather Roundup
Issued by NWS Little Rock, AR

Home | Current Version | Previous Version | Text Only | Print | Product List | Glossary On
Versions: 1 2 3 4 5 6 7 8 9 10 11 12 13 14 15 16 17 18 19 20 21 22 23 24 25 26 27 28 29 30 31 32 33 34 35 36 37 38 39 40 41 42 43 44 45 46 47 48 49 50
000
ASUS44 KLZK 230905
RWRLZK

WEATHER ROUNDUP FOR ARKANSAS
NATIONAL WEATHER SERVICE LITTLE ROCK AR
300 AM CST SUN NOV 23 2014

NOTE: "FAIR" INDICATES FEW OR NO CLOUDS BELOW 12,000 FEET WITH NO
SIGNIFICANT WEATHER AND/OR OBSTRUCTIONS TO VISIBILITY.

ARZ001-003-010-029-231000-
NORTHWEST ARKANSAS

CITY           SKY/WX    TMP DP  RH WIND       PRES   REMARKS
FAYETTEVILLE   CLOUDY    58  54  86 S14G26    29.66S
FORT SMITH     CLOUDY    55  53  93 NE6       29.67S
HARRISON       CLOUDY    57  53  86 S17       29.68F
BENTONVILLE    CLOUDY    57  54  88 S8        29.67S
ROGERS         CLOUDY    57  54  88 S17       29.67R
SILOAM SPGS    CLOUDY    57  52  82 S13G23    29.66F
HIGHFILL       CLOUDY    59  55  87 S17G26    29.66S
$$

ARZ004-005-016-231000-
NORTH CENTRAL ARKANSAS

CITY           SKY/WX    TMP DP  RH WIND       PRES   REMARKS
BATESVILLE     CLOUDY    54  48  82 SE6       29.76F
FLIPPIN        CLOUDY    55  48  76 S5        29.72S
MTN HOME       CLOUDY    53  50  89 E5        29.71F
$$

ARZ040-041-231000-
WEST CENTRAL ARKANSAS

CITY           SKY/WX    TMP DP  RH WIND       PRES   REMARKS
MENA           CLOUDY    61  59  94 SE3       29.67F
MOUNT IDA      CLOUDY    59  55  87 VRB5      29.65S
$$

ARZ009-017-025-026-028-231000-
NORTHEAST ARKANSAS

CITY           SKY/WX    TMP DP  RH WIND       PRES   REMARKS
CORNING        CLOUDY    50  46  87 SE9       29.81F
JONESBORO      MOCLDY    47  45  93 E7        29.82F
NEWPORT        MOCLDY    54  50  86 SE17      29.79F
WALNUT RIDGE   CLOUDY    52  45  76 SE10      29.79F
BLYTHEVILLE    PTCLDY    63  50  62 SE9       29.85F
$$

ARZ022-023-033-042-044-231000-
CENTRAL ARKANSAS

CITY           SKY/WX    TMP DP  RH WIND       PRES   REMARKS
LITTLE ROCK    LGT RAIN  59  51  75 SE17      29.74F
N LITTLE ROCK    N/A     56  54  92 SE14G25   29.74F
JACKSONVILLE   LGT RAIN  58  53  83 SE8       29.73F
SEARCY         CLOUDY    55  51  86 SE6       29.77F
HOT SPRINGS    CLOUDY    58  55  90 SE13G22   29.69F
RUSSELLVILLE   CLOUDY    58  53  84 CALM      29.68S
CLINTON        CLOUDY    50  50 100 NW3       29.75S FOG
$$

ARZ036-231000-
EAST ARKANSAS

CITY           SKY/WX    TMP DP  RH WIND       PRES   REMARKS
WEST MEMPHIS   MOCLDY    57  54  89 SE13      29.82F
$$

ARZ050-053-066-070-073-231000-
SOUTHWEST ARKANSAS

CITY           SKY/WX    TMP DP  RH WIND       PRES   REMARKS
ARKADELPHIA    LGT RAIN  58  58 100 SE12      29.70F
CAMDEN         RAIN      55  54  94 NE5       29.74F
TEXARKANA      CLOUDY    59  59 100 SE16G24   29.63F
EL DORADO      LGT RAIN  57  56  96 E5        29.74F FOG
DE QUEEN       CLOUDY    60  58  92 CALM      29.65S
$$

ARZ056-057-069-231000-
SOUTHEAST ARKANSAS

CITY           SKY/WX    TMP DP  RH WIND       PRES   REMARKS
PINE BLUFF     RAIN      56  53  90 SE10      29.77F
STUTTGART      CLOUDY    57  52  82 SE15G21   29.77F
MONTICELLO     CLOUDY    58  54  86 E7        29.77F

$$





USA.gov is the U.S. government's official web portal to all federal, state and local government web resources and services.